Regional Weather Roundup
Issued by NWS

Home | Current Version | Previous Version | Text Only | Print | Product List | Glossary Off
Versions: 1 2 3 4 5 6 7 8 9 10 11 12 13 14 15 16 17 18 19 20 21 22 23 24 25 26 27

000
ASUS45 KSLC 180310
RWRUT

UTAH REGIONAL WEATHER ROUNDUP
NATIONAL WEATHER SERVICE SALT LAKE CITY UT
900 PM MDT THU APR 17 2014

UTZ001>011-023>025-180400-

NORTHERN UTAH

CITY           SKY/WX    TMP DP  RH WIND       PRES   REMARKS
HILL AFB       CLEAR     60  25  26 E13       29.86F
LOGAN          CLEAR     56  30  37 E7        29.86F
OGDEN          CLEAR     59  29  31 S7        29.84F
PROVO AIRPORT  CLEAR     63  30  29 CALM      29.88F
SALT LAKE CITY PTCLDY    63  28  26 S6        29.83F
VERNAL         CLEAR     51  27  39 W7        29.97R
WENDOVER       MOCLDY    66  27  22 NE9       29.79S
HEBER CITY     CLEAR     46  28  49 E6        29.95R
WEST JORDAN    CLEAR     61  34  36 SW9       29.86F

$$

UTZ012>022-026-027-180400-

SOUTHERN UTAH

CITY           SKY/WX    TMP DP  RH WIND       PRES   REMARKS
BRYCE CANYON   CLEAR     42  23  46 S3        30.10R
CEDAR CITY     CLEAR     62  19  19 S7        29.96S
MILFORD        CLEAR     66  19  16 SW14      29.91R
MOAB/CYNLANDS  CLEAR     62  20  19 CALM      29.95R
PRICE          CLEAR     57  18  21 E9        30.01R
ST GEORGE      CLEAR     77  21  12 SW6       29.85R
KANAB            N/A     63  23  22 S3        29.98

$$

REGIONAL REPORTS     COLORADO/ARIZONA

CITY           SKY/WX    TMP DP  RH WIND       PRES   REMARKS
CRAIG, CO      PTCLDY    43  26  51 VRB3      30.03R
GRAND JUNCTION PTCLDY    53  26  35 NE5       30.00R
RIFLE          CLEAR     50  26  39 SE7       30.03R
MONTROSE       CLEAR     54  28  36 SE3       30.06R
CORTEZ         CLEAR     47  23  38 NE6       30.09R
PAGE, AZ       CLEAR     70  24  17 SE6       29.90S
GRAND CANYON   PTCLDY    53  17  24 CALM      30.08R
KINGMAN        MOCLDY    72  15  11 SW13      29.92R
FLAGSTAFF      PTCLDY    55  18  23 SW9       30.13R

$$

REGIONAL REPORTS    NEVADA/IDAHO/WYOMING

CITY           SKY/WX    TMP DP  RH WIND       PRES   REMARKS
LAS VEGAS, NV  CLOUDY    83  20   9 S15G25    29.75R
ELY            MOCLDY    62  20  19 SE10G23   29.91R
ELKO           CLOUDY    65  29  25 CALM      29.76S
POCATELLO, ID  PTCLDY    59  24  26 S16G24    29.82S
BURLEY         MOCLDY    61  32  33 SW14      29.74R
EVANSTON, WY   PTCLDY    48  24  39 W9        30.00R
ROCK SPRINGS   PTCLDY    50  19  29 SW9       29.98R

$$



USA.gov is the U.S. government's official web portal to all federal, state and local government web resources and services.